EDT,Max TemperatureF,Mean TemperatureF,Min TemperatureF,Max Dew PointF,MeanDew PointF,Min DewpointF,Max Humidity, Mean Humidity, Min Humidity, Max Sea Level PressureIn, Mean Sea Level PressureIn, Min Sea Level PressureIn, Max VisibilityMiles, Mean VisibilityMiles, Min VisibilityMiles, Max Wind SpeedMPH, Mean Wind SpeedMPH, Max Gust SpeedMPH,PrecipitationIn, CloudCover, Events, WindDirDegrees
2012-10-1,66,54,42,50,47,42,99,78,46,29.96,29.90,29.84,10,10,7,8,1,,0.00,0,,23
2012-10-2,72,60,49,58,50,43,92,69,35,29.91,29.86,29.82,10,10,10,14,4,18,0.00,2,Rain,42
2012-10-3,64,60,57,60,57,54,97,88,77,30.03,29.96,29.91,10,8,2,8,3,,0.00,8,Rain,167
2012-10-4,79,68,57,62,56,47,97,75,33,30.07,30.03,29.97,10,8,4,15,7,24,0.00,5,Rain,218
2012-10-5,59,54,50,51,41,32,80,62,44,30.11,30.06,30.00,10,10,10,15,9,22,0.00,5,Rain,273
2012-10-6,50,47,44,40,35,31,84,61,52,30.12,30.06,29.98,10,10,7,16,10,24,0.00,8,Rain,308
2012-10-7,47,42,37,42,37,25,95,80,45,30.14,30.12,30.09,10,9,1,10,2,16,0.00,7,Rain,344
2012-10-8,57,46,36,34,29,25,79,53,30,30.17,30.11,30.04,10,10,10,13,6,20,0.00,2,,187
2012-10-9,64,54,45,48,37,31,92,53,38,30.04,29.92,29.79,10,10,2,21,11,29,0.00,1,Rain,196
2012-10-10,49,46,43,46,34,25,96,61,39,30.15,30.01,29.86,10,9,3,17,10,26,0.00,8,Rain,294
2012-10-11,61,49,37,46,36,29,87,59,41,30.21,30.11,30.03,10,10,7,23,10,37,0.00,2,Rain,235
2012-10-12,53,43,33,45,34,26,97,72,35,30.46,30.37,30.22,10,10,4,15,4,20,0.00,2,Rain,79
2012-10-13,66,50,35,64,44,30,99,84,60,30.31,30.07,29.84,10,8,1,13,6,25,0.00,6,Rain,155
2012-10-14,73,62,52,64,61,50,96,87,58,29.83,29.61,29.43,10,7,2,22,11,33,0.00,7,Rain,216
2012-10-15,53,44,35,49,43,34,97,79,66,29.98,29.85,29.68,10,10,5,16,10,26,0.00,6,Rain,316
2012-10-16,63,48,32,45,40,32,98,71,46,29.98,29.83,29.62,10,10,10,15,4,23,0.00,0,,154
2012-10-17,72,66,59,58,52,46,91,66,43,29.62,29.54,29.39,10,10,5,20,11,32,0.00,3,Rain,175
2012-10-18,60,52,45,57,46,34,97,78,48,29.58,29.43,29.30,10,9,4,21,12,31,0.00,8,Rain,202
2012-10-19,53,49,45,46,44,43,96,86,74,29.57,29.52,29.48,10,9,3,12,6,16,0.00,8,Rain,180
2012-10-20,54,48,41,48,46,41,98,84,72,29.91,29.74,29.57,10,10,4,13,6,21,0.00,7,Rain,301
2012-10-21,64,52,41,48,45,41,99,73,49,30.08,30.02,29.91,10,9,2,10,4,,0.00,1,,165
2012-10-22,68,60,52,62,55,48,97,83,62,30.02,29.98,29.87,10,9,1,12,3,17,0.00,4,Rain,160
2012-10-23,66,62,58,64,61,58,100,94,86,29.97,29.93,29.90,10,6,0,10,4,,0.00,8,Fog-Rain,194
2012-10-24,80,71,62,63,61,59,93,75,51,29.97,29.94,29.90,10,10,7,10,4,22,0.00,3,,178
2012-10-25,79,64,49,62,58,47,94,68,50,29.94,29.83,29.73,10,10,3,28,12,37,0.00,2,Rain,187
2012-10-26,49,45,41,48,36,33,93,69,55,30.29,30.20,29.96,10,10,4,17,12,28,0.00,5,Rain,339
2012-10-27,50,42,34,38,33,31,91,71,47,30.28,30.25,30.20,10,10,10,15,6,21,0.00,2,,19
2012-10-28,50,41,32,32,29,25,90,62,39,30.27,30.24,30.19,10,10,10,16,9,22,0.00,2,,32
2012-10-29,48,42,37,34,29,24,74,58,43,30.23,30.14,29.94,10,10,10,26,12,37,0.00,0,,3
2012-10-30,44,42,41,39,35,26,91,75,48,29.93,29.73,29.66,10,10,5,30,21,45,0.00,6,Rain,352
2012-10-31,45,42,40,41,38,36,95,84,72,29.78,29.72,29.67,10,9,2,20,14,30,0.00,8,Rain,340